Stündliche Wetter Holychivka

Heute, 16 Juni, Mittwoch

Zeit Temperatur Niederschläge Wind Luftdruck Luftfeuchtigkeit
00:00 +15°C° 0 mm 2 m/S 743 mmHg 92%
01:00 +15°C° 0 mm 2 m/S 743 mmHg 92%
02:00 +14°C° 0 mm 2 m/S 743 mmHg 92%
03:00 +14°C° 0 mm 2 m/S 743 mmHg 92%
04:00 +14°C° 0 mm 2 m/S 743 mmHg 92%
05:00 +14°C° 0 mm 2 m/S 743 mmHg 91%
06:00 +16°C° 0 mm 3 m/S 743 mmHg 86%
07:00 +18°C° 0 mm 3 m/S 743 mmHg 81%
08:00 +20°C° 0 mm 4 m/S 743 mmHg 75%
09:00 +21°C° 0 mm 4 m/S 744 mmHg 69%
10:00 +23°C° 0 mm 4 m/S 744 mmHg 64%
11:00 +25°C° 0 mm 4 m/S 744 mmHg 58%
12:00 +25°C° 0.1 mm 4 m/S 744 mmHg 58%
13:00 +25°C° 0.1 mm 4 m/S 743 mmHg 59%
14:00 +25°C° 0.1 mm 5 m/S 743 mmHg 59%
15:00 +25°C° 0.3 mm 4 m/S 743 mmHg 63%
16:00 +23°C° 0.3 mm 4 m/S 743 mmHg 66%
17:00 +23°C° 0.3 mm 4 m/S 744 mmHg 70%
18:00 +21°C° 0.1 mm 3 m/S 744 mmHg 74%
19:00 +20°C° 0.1 mm 3 m/S 744 mmHg 79%
20:00 +19°C° 0.1 mm 3 m/S 744 mmHg 84%
21:00 +18°C° 0 mm 3 m/S 745 mmHg 85%
22:00 +17°C° 0 mm 3 m/S 745 mmHg 85%
23:00 +16°C° 0 mm 3 m/S 745 mmHg 86%

Morgen, 17 Juni, Donnerstag

Zeit Temperatur Niederschläge Wind Luftdruck Luftfeuchtigkeit
00:00 +15°C° 0 mm 2 m/S 745 mmHg 87%
01:00 +15°C° 0 mm 2 m/S 745 mmHg 87%
02:00 +14°C° 0 mm 2 m/S 745 mmHg 87%
03:00 +14°C° 0 mm 2 m/S 746 mmHg 88%
04:00 +14°C° 0 mm 2 m/S 746 mmHg 89%
05:00 +14°C° 0 mm 2 m/S 746 mmHg 91%
06:00 +16°C° 0 mm 2 m/S 746 mmHg 84%
07:00 +18°C° 0 mm 3 m/S 746 mmHg 77%
08:00 +20°C° 0 mm 3 m/S 747 mmHg 70%
09:00 +22°C° 0 mm 3 m/S 747 mmHg 67%
10:00 +23°C° 0 mm 4 m/S 747 mmHg 63%
11:00 +25°C° 0 mm 4 m/S 747 mmHg 60%
12:00 +26°C° 0 mm 4 m/S 747 mmHg 58%
13:00 +27°C° 0 mm 4 m/S 747 mmHg 56%
14:00 +28°C° 0 mm 4 m/S 747 mmHg 54%
15:00 +27°C° 0 mm 4 m/S 747 mmHg 57%
16:00 +27°C° 0 mm 4 m/S 747 mmHg 60%
17:00 +27°C° 0 mm 4 m/S 747 mmHg 63%
18:00 +25°C° 0 mm 3 m/S 747 mmHg 69%
19:00 +22°C° 0 mm 3 m/S 747 mmHg 76%
20:00 +21°C° 0 mm 2 m/S 748 mmHg 82%
21:00 +20°C° 0 mm 2 m/S 748 mmHg 85%
22:00 +18°C° 0 mm 3 m/S 748 mmHg 87%
23:00 +17°C° 0 mm 3 m/S 748 mmHg 90%

übermorgen, 18 Juni, Freitag

Zeit Temperatur Niederschläge Wind Luftdruck Luftfeuchtigkeit
00:00 +17°C° 0 mm 3 m/S 748 mmHg 92%
01:00 +17°C° 0 mm 3 m/S 748 mmHg 93%
02:00 +16°C° 0 mm 2 m/S 748 mmHg 95%
03:00 +16°C° 0 mm 2 m/S 748 mmHg 95%
04:00 +16°C° 0 mm 2 m/S 748 mmHg 95%
05:00 +16°C° 0 mm 2 m/S 748 mmHg 95%
06:00 +17°C° 0 mm 3 m/S 749 mmHg 87%
07:00 +19°C° 0 mm 3 m/S 749 mmHg 79%
08:00 +21°C° 0 mm 4 m/S 749 mmHg 71%
09:00 +22°C° 0 mm 4 m/S 749 mmHg 68%
10:00 +23°C° 0 mm 4 m/S 749 mmHg 64%
11:00 +25°C° 0 mm 4 m/S 749 mmHg 60%
12:00 +26°C° 0 mm 4 m/S 749 mmHg 59%
13:00 +26°C° 0 mm 4 m/S 748 mmHg 58%
14:00 +27°C° 0 mm 5 m/S 748 mmHg 57%
15:00 +27°C° 0 mm 4 m/S 748 mmHg 58%
16:00 +26°C° 0 mm 4 m/S 748 mmHg 60%
17:00 +26°C° 0 mm 4 m/S 748 mmHg 62%
18:00 +25°C° 0 mm 4 m/S 748 mmHg 69%
19:00 +22°C° 0 mm 3 m/S 748 mmHg 77%
20:00 +20°C° 0 mm 3 m/S 748 mmHg 84%
21:00 +20°C° 0 mm 3 m/S 748 mmHg 87%
22:00 +19°C° 0 mm 3 m/S 748 mmHg 90%
23:00 +18°C° 0 mm 2 m/S 749 mmHg 94%

19 Juni, Samstag

Zeit Temperatur Niederschläge Wind Luftdruck Luftfeuchtigkeit
00:00 +18°C° 0 mm 2 m/S 749 mmHg 94%
01:00 +17°C° 0 mm 2 m/S 749 mmHg 95%
02:00 +17°C° 0 mm 2 m/S 749 mmHg 95%
03:00 +17°C° 0 mm 2 m/S 749 mmHg 95%
04:00 +17°C° 0 mm 2 m/S 749 mmHg 96%
05:00 +17°C° 0 mm 2 m/S 749 mmHg 96%
06:00 +19°C° 0 mm 3 m/S 749 mmHg 90%
07:00 +20°C° 0 mm 3 m/S 749 mmHg 84%
08:00 +22°C° 0 mm 4 m/S 749 mmHg 77%
09:00 +23°C° 0 mm 4 m/S 749 mmHg 72%
10:00 +25°C° 0 mm 4 m/S 749 mmHg 68%
11:00 +26°C° 0 mm 5 m/S 748 mmHg 63%
12:00 +27°C° 0 mm 5 m/S 748 mmHg 61%
13:00 +27°C° 0 mm 5 m/S 748 mmHg 60%
14:00 +27°C° 0 mm 5 m/S 748 mmHg 59%
15:00 +26°C° 0.3 mm 5 m/S 748 mmHg 64%
16:00 +26°C° 0.3 mm 4 m/S 748 mmHg 68%
17:00 +25°C° 0.3 mm 4 m/S 747 mmHg 72%
18:00 +23°C° 0.4 mm 4 m/S 748 mmHg 78%
19:00 +22°C° 0.4 mm 3 m/S 748 mmHg 83%
20:00 +20°C° 0.4 mm 2 m/S 748 mmHg 89%
21:00 +20°C° 0 mm 2 m/S 748 mmHg 90%
22:00 +19°C° 0 mm 2 m/S 748 mmHg 92%
23:00 +18°C° 0 mm 2 m/S 748 mmHg 94%

20 Juni, Sonntag

Zeit Temperatur Niederschläge Wind Luftdruck Luftfeuchtigkeit
00:00 +18°C° 0 mm 2 m/S 748 mmHg 95%
01:00 +17°C° 0 mm 2 m/S 748 mmHg 95%
02:00 +17°C° 0 mm 2 m/S 748 mmHg 96%
03:00 +17°C° 0 mm 2 m/S 748 mmHg 96%
04:00 +17°C° 0 mm 2 m/S 748 mmHg 96%
05:00 +17°C° 0 mm 2 m/S 748 mmHg 96%
06:00 +18°C° 0 mm 3 m/S 748 mmHg 91%
07:00 +20°C° 0 mm 3 m/S 748 mmHg 85%
08:00 +21°C° 0 mm 4 m/S 748 mmHg 80%
09:00 +23°C° 0 mm 4 m/S 748 mmHg 75%
10:00 +25°C° 0 mm 4 m/S 748 mmHg 69%
11:00 +26°C° 0 mm 4 m/S 747 mmHg 64%
12:00 +27°C° 0 mm 4 m/S 747 mmHg 61%
13:00 +28°C° 0 mm 4 m/S 747 mmHg 59%
14:00 +28°C° 0 mm 4 m/S 747 mmHg 57%
15:00 +28°C° 0 mm 4 m/S 747 mmHg 60%
16:00 +28°C° 0 mm 4 m/S 746 mmHg 62%
17:00 +27°C° 0 mm 4 m/S 746 mmHg 65%
18:00 +26°C° 0 mm 3 m/S 746 mmHg 71%
19:00 +24°C° 0 mm 3 m/S 746 mmHg 77%
20:00 +23°C° 0 mm 2 m/S 746 mmHg 84%
21:00 +21°C° 0 mm 2 m/S 746 mmHg 87%
22:00 +20°C° 0 mm 2 m/S 746 mmHg 89%
23:00 +19°C° 0 mm 2 m/S 746 mmHg 92%

21 Juni, Montag

Zeit Temperatur Niederschläge Wind Luftdruck Luftfeuchtigkeit
00:00 +18°C° 0 mm 2 m/S 746 mmHg 93%
01:00 +18°C° 0 mm 2 m/S 746 mmHg 93%
02:00 +17°C° 0 mm 2 m/S 746 mmHg 94%
03:00 +17°C° 0 mm 2 m/S 746 mmHg 93%
04:00 +17°C° 0 mm 2 m/S 745 mmHg 93%
05:00 +17°C° 0 mm 2 m/S 745 mmHg 93%
06:00 +19°C° 0 mm 3 m/S 745 mmHg 86%
07:00 +20°C° 0 mm 3 m/S 745 mmHg 80%
08:00 +22°C° 0 mm 4 m/S 745 mmHg 73%
09:00 +23°C° 0 mm 4 m/S 745 mmHg 68%
10:00 +26°C° 0 mm 4 m/S 745 mmHg 63%
11:00 +27°C° 0 mm 4 m/S 744 mmHg 58%
12:00 +28°C° 0 mm 5 m/S 744 mmHg 56%
13:00 +28°C° 0 mm 5 m/S 744 mmHg 55%
14:00 +29°C° 0 mm 5 m/S 743 mmHg 53%
15:00 +29°C° 0.1 mm 5 m/S 743 mmHg 55%
16:00 +29°C° 0.1 mm 5 m/S 743 mmHg 58%
17:00 +28°C° 0.1 mm 5 m/S 743 mmHg 60%
18:00 +27°C° 0.1 mm 4 m/S 743 mmHg 67%
19:00 +25°C° 0.1 mm 3 m/S 742 mmHg 74%
20:00 +22°C° 0.1 mm 3 m/S 742 mmHg 81%
21:00 +22°C° 0 mm 3 m/S 742 mmHg 84%
22:00 +21°C° 0 mm 3 m/S 742 mmHg 87%
23:00 +20°C° 0 mm 3 m/S 742 mmHg 90%
Mehr zeigen

Wir brauchen deine Erlaubnis

Meteoprog und unser Service Anbieter werden persönliche Daten aufbewahren, so wie Cookies, Geräte Bezeichnung oder ähnliche Technologien von deinem Gerät und Prozess, so wie Persönliche Daten Inhalte und Werbungen, genauso wie social Media und den Verkehr zu analysieren.

  • Aufbewahrung und/oder Zugang zu deiner Geräte Informationen.

    Cookies, Geräte Bezeichnung oder andere Informationen, können aufbewahrt oder Zugang zu deinem Gerät erhalten, für den Grund, der oben angegeben wird.

  • Personalisierte Werbung und Inhalte, Messungen, Einblick in das Publikum und Produkt Entwicklung.

    Werbungen und Inhalte können personalisiert werden, basierend auf ein Profil. Mehr Daten können besser personalisierte Werbungen und Inhalte hinzufügen. Werbung und Inhalte können gezeigt und gemessen werden. Einblicke über das Publikum, welche die Werbung gesehen haben und den Inhalt, können abgeleitet werden. So wie Daten können genutzt werden, um es zu verbessern oder die Benutzer Erfahrung zu verbessern das System und die Software.

Wenn du “Ich stimme zu” klickst, erlaubst du uns, die Cookies zu benutzen die Geräte Bezeichnung, den Web oder ähnliche Technologien zu benutzen. Deine Settings, können in deinem Gerät bei deinem Browser geändert werden.

Für den bestimmten Zweck, berechtigten Interessen beruhen darauf, mehr als auf den Inhalt. Du kannst mehr darüber in unseren Privaten und Cookie Politik lesen.